Terminal Aerodrome Forecast
Issued by NWS Indianapolis, IN

Home | Current Version | Previous Version | Text Only | Print | Product List | Glossary On
Versions: 1 2 3 4 5 6 7 8 9 10 11 12 13 14 15 16 17 18 19 20 21 22 23 24 25
000
FTUS43 KIND 200500
TAFIND
TAF
KIND 200520Z 2006/2112 16005KT P6SM SCT250
     FM201500 22012G20KT P6SM SCT120 BKN250
     FM210000 23010KT P6SM VCSH SCT050 BKN120 PROB30 2103/2109 4SM
      -TSRA BKN040CB=

USA.gov is the U.S. government's official web portal to all federal, state and local government web resources and services.